Reflectivity
-20 -20 -14 -20 -20 -20 -9 -20 -20 -20 -20 -20 -20 -20 -20 -20 -20 -20 -20 -20 -20 -20
-20 -13 -18 -20 -20 -20 -20 -20 -20 -20 -20 -20 -20 -20 -20 -20 -20 -20 -20 -20 -20 -20
0 -17 -11 2 -0 -13 -20 -20 -20 -20 -20 -20 -20 -20 -20 -20 -20 -20 -20 -20 -20 -20
-11 -20 -11 6 8 -9 -20 -20 -20 -20 -20 -20 -20 -20 -20 -20 -20 -20 -20 -20 -20 -20
-7 -20 1 8 -18 -20 -20 -20 -20 -20 -20 -20 -20 -20 -20 -20 -20 -20 -20 -20 -20 -20
-18 -11 8 5 -10 -20 -20 -20 -20 -20 -20 -20 -20 -20 -20 -20 -20 -20 -20 -20 -20 -20
-18 -11 -9 -20 -20 -20 -20 -20 -20 -20 -20 -20 -20 -20 -20 -20 -20 -20 -20 -20 -20 -20
-4 -20 -20 -20 -20 -20 -20 -20 -20 -20 -20 -20 -20 -20 -20 -20 -20 -20 -20 -20 -20 -20
-7 -20 -20 -20 -20 -20 -20 -20 -20 -20 -20 -20 -20 -20 -20 -20 -20 -20 -14 7 -16 -0
-20 -20 -20 -20 -20 -20 -20 -20 -20 -20 -20 -20 -20 -20 -20 -20 -13 6 7 5 9 8
-20 -20 -20 -20 -20 -20 -20 -20 -20 -20 -20 -20 -20 -20 -20 -1 5 5 3 2 7 9
-20 -20 -20 -20 -20 -20 -20 -20 -20 -20 -20 -4 -8 -20 -20 -18 7 8 1 3 5 7
-20 -20 -20 -20 -20 -20 -20 -20 -20 -20 -1 -3 -19 -20 -20 -18 9 10 9 -8 -7 -19
-20 -20 -20 -20 -20 -20 -20 -20 -12 6 4 -20 -19 -2 9 14 12 14 11 9 12 16
Wind_Speed
13 8 6 6 2 3 5 5 7 8 10 11 13 13 13 11 12 14 13 16 14 13
10 10 8 6 5 5 5 6 9 9 11 13 13 14 14 11 14 14 14 14 15 14
9 9 7 5 5 6 6 9 10 12 13 14 15 15 15 13 15 15 13 12 16 16
9 8 5 4 5 7 8 10 12 14 15 15 16 16 15 17 18 18 17 16 17 19
9 6 5 6 7 8 10 12 14 15 16 17 17 17 18 19 18 19 18 18 18 19
7 5 8 8 9 10 12 14 15 16 17 17 18 18 18 19 19 19 19 19 19 19
7 9 8 8 9 12 13 14 15 16 17 17 18 18 19 19 19 18 17 16 16 18
10 8 9 9 11 13 13 14 16 17 17 17 16 14 17 17 19 18 17 16 17 17
8 7 9 10 12 13 14 15 16 17 17 18 14 16 14 15 16 16 17 16 17 18
6 8 9 12 13 14 15 15 17 17 17 17 18 18 18 20 15 15 16 17 17 16
7 9 11 12 14 14 14 15 15 16 17 17 15 20 22 22 16 15 17 18 19 19
8 10 12 13 14 14 14 15 14 15 17 18 17 24 25 22 15 15 17 17 18 18
8 11 12 13 14 14 14 14 12 15 16 17 16 23 26 23 12 14 12 15 17 24
9 11 12 13 13 14 14 13 11 12 13 15 16 16 22 20 10 10 11 11 10 10
Wind_Direction
243 236 232 229 219 245 254 277 292 291 289 290 291 290 286 281 276 275 272 270 266 269
215 216 203 179 209 252 277 279 279 296 287 283 282 281 280 277 276 276 276 273 270 270
203 199 200 202 234 259 281 281 293 296 290 288 285 282 280 277 275 273 271 269 267 267
198 196 202 221 259 273 294 291 292 290 288 284 281 278 277 275 272 268 268 269 270 269
202 194 217 241 275 287 286 289 284 283 281 280 278 277 274 272 272 274 274 271 269 267
201 223 262 263 274 286 287 285 284 284 282 281 279 279 278 277 275 273 271 271 270 270
250 247 253 273 283 283 287 288 287 286 284 283 282 280 279 278 276 274 273 275 277 276
252 251 263 274 286 293 292 291 290 288 286 286 284 281 285 290 290 287 287 283 279 273
266 264 275 292 294 294 296 294 294 293 291 291 289 297 296 290 285 285 280 273 266 265
258 274 291 294 298 299 299 300 296 297 300 299 297 297 303 296 287 280 271 267 266 264
265 286 293 302 300 305 305 302 303 304 305 303 303 308 301 295 286 275 267 264 263 260
293 299 303 305 308 308 306 305 308 310 312 308 304 298 292 291 283 273 267 264 262 260
300 302 307 311 310 307 307 311 317 311 300 298 290 287 288 288 278 275 269 259 255 253
306 313 315 307 305 312 317 312 300 300 300 294 288 288 296 303 303 299 296 292 286 265